sat.trackr.live / text

‹ back to catalog

STARLINK-1048

NORAD 44753 · 2019-074AS

PAYLOAD ACTIVE UNKNOWN

§ Identity

Operator
Country
US
Launch date
2019-11-11
Launch site
AFETR
Launch vehicle
Mass (kg)
RCS (m²)

Purposes: comms

External: N2YO · Heavens-Above · Gunter

§ Orbital elements

Epoch: 2026-05-24T10:17:10.084416Z

Period
91.97 min
Inclination
53.0444°
Eccentricity
0.0007285
Mean motion
15.65688640 rev/d
Perigee alt
366.3 km
Apogee alt
376.2 km
Semi-major
6,749.4 km
B*
3.6081e-4
RAAN
159.7798°
Arg perigee
9.6544°
Mean anomaly
350.4610°
Rev number
36,082

§ Raw data

STARLINK-10481 44753U 19074AS  26144.42858894  .00036756  00000+0  36081-3 0  99962 44753  53.0444 159.7798 0007285   9.6544 350.4610 15.65688640360828

JSON: /api/v1/satellites/44753 · /tle

For live sub-satellite position, see the globe view (requires WebGL).

§ Visibility from observer

Set your observer location to see the next 7 days of passes ≥ 10°. The values pass through the URL so the page stays shareable.

No JS? Fill the form by hand. The geolocation button needs JavaScript.